Flag for U.S.A. Weather past 2 weeks in Wilmington, Delaware, U.S.A.

Now
38 °F

Overcast.


Feels Like: 33 °F
Forecast: 40 / 49 °F
Wind: 7 mph from North

Location: New Castle County Airport

Current Time: Mar 27, 2015 at 8:48:56 AM

Latest Report: Mar 27, 2015 at 7:51 AM


Visibility: 10 mi

Pressure: 29.79 "Hg

Humidity: 93%

Dew point: 36 °F

Location of WilmingtonLocation

Historic Weather in Wilmington — Graph

°F

Wilmington temperature yesterday

Maximum temperature yesterday: 70 °F (at 4:51 PM)
Minimum temperature yesterday: 38 °F (at 5:51 AM)
Average temperature yesterday: 52 °F

Past Weeks' High & Low Weather Summary

 TemperatureHumidityPressure
High70 °F (Mar 26, 4:51 PM)100% (Mar 14, 3:51 AM)30.67 "Hg (Mar 14, 3:51 AM)
Low24 °F (Mar 23, 5:51 AM)20% (Mar 22, 4:51 PM)29.59 "Hg (Mar 26, 6:51 PM)
Average41 °F59%30.13 "Hg
* Reported Mar 12 7:51 AM — Mar 27 7:51 AM, Wilmington, Weather by CustomWeather, © 2015

Note: Actual official high and low records may vary slightly from our data, if they occured in-between our weather recording intervals... More about our weather records

Advertising

Wilmington weather history for previous 24 hours

 ConditionsComfort  
Time TempWeatherWind HumidityBarometerVisibility
7:51 AM
Fri, Mar 27
38 °FOvercast.7 mph93%29.79 "Hg10 mi
6:51 AM38 °FLight rain. Overcast.10 mph93%29.78 "Hg9 mi
5:51 AM40 °FLight rain. Overcast.12 mph89%29.78 "Hg7 mi
4:51 AM42 °FLight rain. Mostly cloudy.14 mph89%29.79 "Hg9 mi
3:51 AM44 °FLight rain. Overcast.12 mph89%29.76 "Hg10 mi
2:51 AM44 °FLight rain. Fog.8 mph89%29.77 "Hg6 mi
1:51 AM46 °FLight rain. Overcast.10 mph83%29.74 "Hg10 mi
12:51 AM48 °FLight rain. Overcast.14 mph89%29.72 "Hg7 mi
11:51 PM
Thu, Mar 26
50 °FLight rain. Mostly cloudy.14 mph89%29.72 "Hg7 mi
10:51 PM53 °FOvercast.9 mph89%29.69 "Hg10 mi
9:51 PM55 °FOvercast.9 mph87%29.67 "Hg10 mi
9:01 PM57 °FThundershowers. Fog.28 mph87%29.68 "Hg5 mi
8:51 PM63 °FThundershowers. Mostly cloudy.23 mph84%29.66 "Hg10 mi
7:51 PM56 °FSunny.7 mph90%29.59 "Hg10 mi
6:51 PM67 °FSunny.12 mph73%29.59 "Hg10 mi
5:51 PM69 °FMostly cloudy.15 mph68%29.61 "Hg10 mi
4:51 PM70 °FSunny.20 mph66%29.65 "Hg10 mi
3:51 PM68 °FMostly cloudy.21 mph76%29.67 "Hg10 mi
2:51 PM62 °FOvercast.3 mph86%29.71 "Hg7 mi
1:51 PM58 °FFog.No wind97%29.77 "Hg4 mi
12:51 PM55 °FLight rain. Fog.3 mph96%29.81 "Hg2 mi
11:51 AM57 °FFog.7 mph90%29.87 "Hg4 mi
10:55 AM50 °FLight rain. Fog.6 mph93%29.90 "Hg3 mi
10:51 AM50 °FLight rain. Fog.6 mph93%29.91 "Hg1 mi
9:51 AM49 °FOvercast.6 mph84%29.94 "Hg8 mi
8:57 AM46 °FMostly cloudy.5 mph86%29.95 "Hg7 mi
Weather by CustomWeather, © 2015

See weather overviewHow to use our weather pages